This demonstration page uses our WeatherBlox Daily Observations layout. Learn more.

Left ArrowRight Arrow

41.55636, -103.73856

Hourly Observations for April 1, 2020

Temp ( °F °C ) Dew Point ( °F °C ) Humidity (%) Winds ( mph kmh ) Pressure ( in mb ) Visibility ( mi km ) Precip ( " mm )
6:58 pm 18:58 Mostly Cloudy 59 15.2 25 -3.7 27 27 NW 5 7 29.78 1009 10 16 0.00 0.00
7:58 pm 19:58 Mostly Cloudy 53 11.9 27 -2.9 36 36 WSW 6 9 29.80 1009 10 16 0.00 0.00
8:58 pm 20:58 Mostly Cloudy 50 9.8 27 -2.9 41 41 SSW 6 9 29.79 1009 10 16 0.00 0.00
9:58 pm 21:58 Mostly Clear 54 12.4 24 -4.5 31 31 SSW 5 7 29.77 1008 10 16 0.00 0.00
10:58 pm 22:58 Mostly Cloudy 51 10.3 27 -3 39 39 S 7 11 29.76 1008 10 16 0.00 0.00
11:58 pm 23:58 Mostly Cloudy 47 8.5 27 -2.8 45 45 Calm 29.75 1007 10 16 0.00 0.00
12:58 am 00:58 Mostly Cloudy 50 9.9 26 -3.3 40 40 SSW 8 13 29.72 1006 10 16 0.00 0.00
1:58 am 01:58 Mostly Cloudy 49 9.3 27 -2.6 43 43 Calm 29.71 1006 10 16 0.00 0.00
2:58 am 02:58 Clear 48 8.8 26 -3.3 43 43 S 14 22 29.67 1005 10 16 0.00 0.00
3:58 am 03:58 Mostly Cloudy 46 7.8 26 -3.3 46 46 SW 16 26 29.65 1004 10 16 0.00 0.00
4:58 am 04:58 Mostly Cloudy 46 7.6 27 -2.8 48 48 SSW 9 15 29.63 1004 10 16 0.00 0.00
5:58 am 05:58 Mostly Clear 46 7.7 27 -2.7 48 48 SSW 9 15 29.64 1004 10 16 0.00 0.00
6:58 am 06:58 Sunny 44 6.5 28 -2.5 53 53 SSW 9 15 29.64 1004 10 16 0.00 0.00
7:58 am 07:58 Mostly Sunny 47 8.6 28 -2.2 47 47 NW 5 7 29.68 1005 10 16 0.00 0.00
8:58 am 08:58 Sunny 53 11.6 25 -3.9 34 34 W 7 11 29.68 1005 10 16 0.00 0.00
9:58 am 09:58 Mostly Cloudy 58 14.7 25 -4.1 27 27 WSW 7 11 29.65 1004 10 16 0.00 0.00
10:58 am 10:58 Mostly Sunny 61 16.2 26 -3.6 26 26 NW 10 17 29.65 1004 10 16 0.00 0.00
11:58 am 11:58 Mostly Cloudy 61 16.2 27 -2.8 27 27 N 8 13 29.64 1004 10 16 0.00 0.00
12:58 pm 12:58 Mostly Sunny 62 16.8 28 -2.2 27 27 N 13 20 29.61 1003 10 16 0.00 0.00
1:58 pm 13:58 Mostly Sunny 65 18.1 28 -2.4 25 25 N 9 15 29.58 1002 10 16 0.00 0.00
2:58 pm 14:58 Mostly Cloudy 65 18.5 27 -2.6 24 24 NNE 10 17 29.57 1001 10 16 0.00 0.00
3:58 pm 15:58 Partly Cloudy 64 18 28 -2.2 25 25 N 15 24 29.58 1002 10 16 0.00 0.00
4:58 pm 16:58 Mostly Sunny 56 13.6 35 1.9 45 45 NE 22 35 29.62 1003 10 16 0.00 0.00
5:58 pm 17:58 Partly Cloudy 51 10.8 37 2.6 57 57 NNE 21 33 29.67 1005 10 16 0.00 0.00

Powered by AerisWeather